Regional Weather Roundup
Issued by NWS Little Rock, AR

Home | Current Version | Previous Version | Graphics & Text | Print | Product List | Glossary On
Versions: 1 2 3 4 5 6 7 8 9 10 11 12 13 14 15 16 17 18 19 20 21 22 23 24 25 26 27 28 29 30 31 32 33 34 35 36 37 38 39 40 41 42 43 44 45 46 47
000
ASUS44 KLZK 222005
RWRLZK

WEATHER ROUNDUP FOR ARKANSAS
NATIONAL WEATHER SERVICE LITTLE ROCK AR
300 PM CDT FRI MAY 22 2015

NOTE: "FAIR" INDICATES FEW OR NO CLOUDS BELOW 12,000 FEET WITH NO
SIGNIFICANT WEATHER AND/OR OBSTRUCTIONS TO VISIBILITY.

ARZ001-003-010-029-222100-
NORTHWEST ARKANSAS

CITY           SKY/WX    TMP DP  RH WIND       PRES   REMARKS
FAYETTEVILLE   CLOUDY    63  48  58 SE5       30.22F
FORT SMITH     LGT RAIN  63  50  62 E10       30.22F
HARRISON       CLOUDY    64  47  53 E12       30.25F
BENTONVILLE    CLOUDY   N/A N/A N/A SE9       30.22F
ROGERS         LGT RAIN  64  48  56 SE8       30.23F
SILOAM SPGS    CLOUDY    61  48  63 E9        30.21F
HIGHFILL       LGT RAIN  64  52  64 SE9       30.21F
SPRINGDALE     LGT RAIN  64  48  55 E9        30.25F
$$

ARZ004-005-016-222100-
NORTH CENTRAL ARKANSAS

CITY           SKY/WX    TMP DP  RH WIND       PRES   REMARKS
BATESVILLE     PTSUNNY   70  48  46 E5        30.27F
FLIPPIN        CLOUDY    66  45  45 E6        30.24F
MTN HOME       CLOUDY    67  47  48 E7        30.25F
$$

ARZ040-041-222100-
WEST CENTRAL ARKANSAS

CITY           SKY/WX    TMP DP  RH WIND       PRES   REMARKS
MENA           CLOUDY    70  54  56 E9        30.21F
MOUNT IDA      PTSUNNY   70  51  51 NE5       30.20F
$$

ARZ009-017-025-026-028-222100-
NORTHEAST ARKANSAS

CITY           SKY/WX    TMP DP  RH WIND       PRES   REMARKS
CORNING          N/A     68  46  45 CALM      30.28F
JONESBORO      MOSUNNY   69  45  41 SE3       30.27F
NEWPORT        PTSUNNY   68  51  54 NE3       30.28F
WALNUT RIDGE   MOSUNNY   68  45  42 SE3       30.28F
BLYTHEVILLE    SUNNY     72  51  47 VRB6      30.27F
$$

ARZ022-023-033-042-044-222100-
CENTRAL ARKANSAS

CITY           SKY/WX    TMP DP  RH WIND       PRES   REMARKS
LITTLE ROCK    PTSUNNY   69  48  47 NE8       30.25S
N LITTLE ROCK  PTSUNNY   68  51  52 SE8G16    30.25S
JACKSONVILLE   MOSUNNY   71  51  47 E9        30.23F
HOT SPRINGS    MOSUNNY   71  49  45 VRB3      30.22F
RUSSELLVILLE   CLOUDY    68  51  54 NE8       30.25S
CLINTON        FAIR      66  50  55 E3        30.27F
$$

ARZ036-222100-
EAST ARKANSAS

CITY           SKY/WX    TMP DP  RH WIND       PRES   REMARKS
WEST MEMPHIS   MOSUNNY   72  50  45 E9        30.24F
$$

ARZ050-053-066-070-073-222100-
SOUTHWEST ARKANSAS

CITY           SKY/WX    TMP DP  RH WIND       PRES   REMARKS
ARKADELPHIA    FAIR      73  56  55 NE6       30.22F
CAMDEN         SUNNY     75  50  41 NE5       30.20F
EL DORADO      SUNNY     73  55  53 E9        30.20F
DE QUEEN       CLOUDY    69  53  56 E12G18    30.18F
$$

ARZ056-057-069-222100-
SOUTHEAST ARKANSAS

CITY           SKY/WX    TMP DP  RH WIND       PRES   REMARKS
PINE BLUFF     SUNNY     71  53  52 E9        30.23F
STUTTGART      MOSUNNY   70  52  52 MISG      30.25F
MONTICELLO     SUNNY     72  52  49 VRB7      30.21F

$$




USA.gov is the U.S. government's official web portal to all federal, state and local government web resources and services.